Showing default

COSMOS 1830, 17585

Orbit data source: Space-Track

COSMOS 1830, 17585 is a payload satellite owned by UNKS (CIS) in LEO that was launched on Fri, 13 Mar 1987 UTC via a TSIKLON-3 launch vehicle from the Plesetsk Missile And Space Complex (PKMTR). Payload-class satellites include a variety of spacecraft equipped with specific instruments for various scientific and technological missions. These include communications satellites like Starlink; space stations such as the ISS; scientific satellites like the Hubble; Earth observation satellites from companies like Planet Labs, Umbra, and HawkEye 360; GPS; miniature CubeSats for education and research; and military/defense satellites.

Loading next visibility...
Identifier
17585, 1987-026D
Orbit
LEO
Country
Flag of CISCIS
Related business
Manufacturer
NPO PM
Mission
Defense Communications
Bus & Motor
STRELA-3, Unknown motor
Mass
225 kg wet, 225 kg dry
Launch date (UTC)
1987-03-13 (39 years ago)
Launch vehicle
TSIKLON-3
Launch site
Plesetsk Missile And Space Complex (PKMTR)
Object type
Payload
Rocket body
Debris
Shape & HBR
Cyl, 0.8 m
Radar Cross Section
1.257 m², Large (>1 m²)

Expand to show TLE details & history
Last TLE update: 1 day ago

TLE from 1 day ago
0 COSMOS 1830
1 17585U 87026D   25260.81951416  .00000021  00000-0  55060-4 0  9992
2 17585  82.5655  20.6302 0006042 124.8596 352.8647 12.63608971776243
Epoch: 2025-09-17T19:40Z
TLE epoch observation values (Epoch: 2025-09-17T19:40:06.023Z)
Latitude
61.46755°
Longitude
-105.20192°
Altitude
1,413.887 km
Speed
7.161 km/s
True Right ascension
12h 27m 15s
True Declination
61° 20' 07"
Sunlit
Object was in daylight at epoch
Visualization orbit readout
Latitude
Unknown
Longitude
Unknown
Altitude
Unknown
Speed
Unknown
Apparent Right ascension
Unknown
Apparent Declination
Unknown
Sunlit
N/A
Visualization observer readout
Local Sidereal Time
17:27:41
Azimuth
Unknown
Elevation
Unknown
Doppler factor
Unknown
Orbital elements
Apogee altitude
1,410.106 km
Perigee altitude
1,400.7 km
Semi-major axis
7,783.54 km
Eccentricity
0.0006
Inclination
82.5655°
RAAN
20.6302°
Arg. of periapsis
124.8596°
True anomaly
352.85609°
Mean anomaly
352.8647°
Eccentric anomaly
352.8604°
Mean motion
3.16066 °/min
Orbital period
113.9 mins
BSTAR
0.00005506
Loading maneuver chart data...
Computing Atmospheric mass density...
Loading historical data...
Loading historical data...
Loading historical data...
Loading historical data...
Loading historical data...
Loading historical data...
Loading historical data...

Documentation

Showing up to 5 results
|